Tracking 29892 objects as of 21-Nov-2024
HD Live streaming from Space Station
objects crossing your sky now

SL-16 DEB

Track SL-16 DEB now!
10-day predictions


NORAD ID: 22349
Int'l Code: 1992-093AN
Perigee: 827.0 km
Apogee: 1,099.9 km
Inclination: 70.8 °
Period: 104.2 minutes
Semi major axis: 7334 km
RCS: 0.0847 m2 (small)
Launch date: December 25, 1992
Source: Commonwealth of Independent States (former USSR) (CIS)
Launch site: TYURATAM MISSILE AND SPACE COMPLEX (TTMTR)

Note: This is SATELLITE DEBRIS
Your satellite tracking list
Your tracking list is empty




NASA's NSSDC Master Catalog

Two Line Element Set (TLE):
1 22349U 92093AN  24325.59816271  .00000775  00000-0  66797-3 0  9995
2 22349  70.8216  13.1692 0186072 246.4798 189.2605 13.82132338603905
Source of the keplerian elements: AFSPC